CDT,Max TemperatureF,Mean TemperatureF,Min TemperatureF,Max Dew PointF,MeanDew PointF,Min DewpointF,Max Humidity, Mean Humidity, Min Humidity, Max Sea Level PressureIn, Mean Sea Level PressureIn, Min Sea Level PressureIn, Max VisibilityMiles, Mean VisibilityMiles, Min VisibilityMiles, Max Wind SpeedMPH, Mean Wind SpeedMPH, Max Gust SpeedMPH,PrecipitationIn, CloudCover, Events, WindDirDegrees
2012-9-1,75,72,69,73,71,67,100,95,90,29.90,29.85,29.82,10,5,2,25,14,37,2.08,8,Rain,41
2012-9-2,86,76,65,72,67,62,97,79,61,29.94,29.91,29.88,10,9,2,14,7,20,0.01,5,,1
2012-9-3,91,77,63,72,67,63,100,75,50,29.96,29.93,29.88,10,4,0,13,3,15,T,0,Fog,60
2012-9-4,93,81,69,72,69,67,100,73,46,29.92,29.87,29.80,10,10,8,13,4,15,0.03,1,Rain-Thunderstorm,187
2012-9-5,89,78,66,70,67,61,97,72,47,29.91,29.84,29.78,10,10,10,22,8,31,0.00,0,,159
2012-9-6,86,73,59,64,58,55,90,63,35,30.01,29.93,29.86,10,10,10,12,6,15,0.00,0,,56
2012-9-7,84,71,57,66,61,53,93,74,55,30.02,29.87,29.78,10,10,10,21,9,31,0.03,2,Rain,340
2012-9-8,75,62,49,50,47,45,86,61,35,30.10,30.04,29.96,10,10,10,18,9,24,0.00,0,,293
2012-9-9,75,62,49,52,48,44,96,69,41,30.19,30.13,30.00,10,10,9,15,6,21,0.00,0,,7
2012-9-10,78,62,46,55,50,45,100,69,37,30.23,30.15,30.07,10,10,10,15,6,25,0.00,0,,168
2012-9-11,87,70,53,60,55,50,89,61,32,30.11,30.06,30.00,10,10,10,18,10,25,0.00,0,,181
2012-9-12,86,71,55,61,58,54,93,65,37,30.14,30.08,30.05,10,10,10,16,8,23,0.00,0,,178
2012-9-13,67,58,49,57,51,45,100,78,55,30.40,30.31,30.14,10,9,2,22,10,28,0.27,7,Rain,14
2012-9-14,72,59,45,53,48,43,100,68,35,30.43,30.38,30.34,10,5,0,10,3,13,0.00,0,Fog,13
2012-9-15,75,59,43,50,47,42,100,69,38,30.34,30.27,30.17,10,10,10,16,5,26,0.00,0,,147
2012-9-16,74,59,44,61,55,44,100,81,61,30.15,30.06,29.99,10,8,1,8,2,10,0.00,1,,199
2012-9-17,76,61,45,63,58,47,100,82,64,29.99,29.93,29.83,10,6,0,26,5,33,0.14,5,Fog-Rain-Thunderstorm,299
2012-9-18,65,53,40,46,41,34,100,66,31,30.09,30.05,29.99,10,9,2,16,5,21,0.00,0,,315
2012-9-19,79,61,43,52,45,36,76,56,35,30.07,29.97,29.85,10,10,10,25,12,35,0.00,0,,207
2012-9-20,73,58,43,47,40,30,92,57,22,30.02,30.00,29.94,10,10,10,18,6,25,0.00,1,,296
2012-9-21,79,62,45,54,45,41,93,61,29,29.99,29.86,29.73,10,10,10,23,9,35,0.00,2,,234
2012-9-22,62,49,35,44,36,31,92,62,32,30.30,30.14,29.92,10,10,10,20,8,26,0.00,0,,322
2012-9-23,68,50,32,41,34,31,100,63,26,30.38,30.31,30.26,10,10,10,13,2,21,0.00,0,,304
2012-9-24,73,55,37,49,41,32,85,58,31,30.27,30.09,29.89,10,10,10,17,7,21,0.00,0,,170
2012-9-25,81,69,56,64,60,50,100,77,54,29.91,29.84,29.80,10,9,4,15,3,21,0.30,2,Rain-Thunderstorm,185
2012-9-26,73,63,52,64,57,45,100,75,49,30.14,30.01,29.89,10,9,2,9,4,13,0.07,3,Rain-Thunderstorm,341
2012-9-27,72,59,45,55,48,42,93,70,47,30.23,30.18,30.14,10,10,7,13,6,17,0.00,0,,65
2012-9-28,72,57,42,48,43,40,92,64,35,30.24,30.19,30.15,10,10,10,13,4,16,0.00,0,,68
2012-9-29,77,58,39,49,44,39,100,65,29,30.20,30.12,30.03,10,10,8,9,2,13,0.00,0,,289
2012-9-30,78,64,50,50,46,42,83,57,31,30.02,29.95,29.88,10,10,10,9,4,14,0.00,0,,12